x

8419317 - Wells, Me (welm1) Weather Station

9:54 - Wed 20th Sep 2017 All times are EDT. -4 hours from GMT.

  • Wind
    15mph, 21mph gusts
  • Sea Temp 61°f
  • Ar Temp 68°f
  • Sea Pressure 1014.5mb
  • 8419317 - Wells, Me
  • 8419317 - Wells, Me

More Historic Weather Station data

Upgrade to MSW Pro to gain access to the past 30 days of data for over 8000 Wavebouys and Weather Stations around the globe.

Join

Comparision Forecast

View Surf forecast
   
Qua 09/20 9:54 15 21 mph 1014.5mb 61f 68f
9:48 14 17 mph 1014.7mb 61f 68f
9:42 14 21 mph 1014.7mb 61f 68f
9:36 17 20 mph 1014.7mb 61f 68f
9:30 14 17 mph 1014.7mb 61f 68f
9:24 13 18 mph 1014.6mb 61f 68f
9:18 11 17 mph 1014.7mb 61f 68f
9:12 10 15 mph 1014.7mb 61f 67f
9:06 14 16 mph 1014.7mb 61f 68f
9:00 14 17 mph 1014.7mb 61f 68f
8:54 9 16 mph 1014.7mb 61f 67f
8:48 11 15 mph 1014.7mb 61f 67f
8:42 11 16 mph 1014.7mb 61f 67f
8:36 11 18 mph 1014.7mb 61f 67f
8:30 13 17 mph 1014.6mb 62f 67f
8:24 11 17 mph 1014.6mb 62f 67f
8:18 13 16 mph 1014.6mb 62f 67f
8:12 13 18 mph 1014.6mb 62f 67f
8:06 14 22 mph 1014.7mb 62f 67f
8:00 13 17 mph 1014.7mb 62f 67f
7:54 11 15 mph 1014.7mb 62f 67f
7:48 13 17 mph 1014.7mb 62f 67f
7:42 13 17 mph 1014.7mb 62f 67f
7:36 13 17 mph 1014.7mb 62f 67f
7:30 15 20 mph 1014.7mb 62f 67f
7:24 13 17 mph 1014.6mb 62f 67f
7:18 13 20 mph 1014.6mb 62f 67f
7:12 13 17 mph 1014.6mb 62f 67f
7:06 14 18 mph 1014.7mb 62f 67f
7:00 14 18 mph 1014.7mb 62f 67f
6:54 10 15 mph 1014.9mb 62f 67f
6:48 15 18 mph 1014.9mb 62f 67f
6:42 11 18 mph 1014.9mb 62f 67f
6:36 13 15 mph 1014.9mb 62f 67f
6:30 11 13 mph 1014.9mb 62f 67f
6:24 10 14 mph 1014.9mb 62f 67f
6:18 9 15 mph 1014.9mb 62f 67f
6:12 11 15 mph 1014.9mb 62f 67f
6:06 11 15 mph 1014.8mb 62f 67f
6:00 11 15 mph 1014.7mb 62f 67f
5:54 11 16 mph 1014.6mb 62f 67f
5:48 13 18 mph 1014.5mb 62f 67f
5:42 11 17 mph 1014.5mb 62f 67f
5:36 14 18 mph 1014.3mb 62f 67f
5:30 14 17 mph 1014.2mb 62f 67f
5:24 14 20 mph 1014.2mb 62f 66f
5:18 16 18 mph 1014.2mb 62f 66f
5:12 14 20 mph 1014.2mb 62f 66f
5:06 13 18 mph 1014.1mb 62f 66f
5:00 14 17 mph 1014.1mb 62f 66f
4:54 14 21 mph 1014.2mb 62f 66f
4:48 14 22 mph 1014mb 62f 66f
4:42 15 18 mph 1014.2mb 62f 66f
4:36 11 17 mph 1014.4mb 62f 66f
4:30 11 16 mph 1014.4mb 62f 66f
4:24 14 17 mph 1014.5mb 62f 66f
4:18 10 17 mph 1014.8mb 62f 66f
4:12 10 16 mph 1014.8mb 62f 66f
4:06 11 15 mph 1014.8mb 62f 66f
4:00 11 15 mph 1014.9mb 62f 66f
3:54 10 14 mph 1014.9mb 62f 66f
3:48 10 14 mph 1015mb 61f 66f
3:42 13 17 mph 1014.9mb 61f 66f
3:36 14 18 mph 1014.9mb 61f 66f
3:30 13 16 mph 1015.1mb 61f 66f
3:24 11 15 mph 1015.1mb 61f 66f
3:18 13 16 mph 1015.1mb 61f 66f
3:12 13 16 mph 1015.2mb 61f 66f
3:06 10 14 mph 1015.4mb 61f 66f
3:00 14 17 mph 1015.4mb 61f 66f
2:48 13 15 mph 1015.5mb 61f -
2:42 10 13 mph 1015.5mb 61f -
2:36 10 14 mph 1015.6mb 61f -
2:30 10 14 mph 1015.7mb 61f 66f
2:24 11 17 mph 1015.6mb 61f 66f
2:18 11 15 mph 1015.5mb 61f 66f
2:12 13 16 mph 1015.5mb 61f 65f
2:06 13 21 mph 1015.6mb 61f 65f
2:00 11 15 mph 1015.7mb 61f 65f
1:54 13 16 mph 1015.8mb 61f 65f
1:48 11 15 mph 1015.8mb - -
1:42 14 18 mph 1015.8mb - -
1:36 14 18 mph 1015.9mb - -
1:30 14 18 mph 1016mb 61f 65f
1:24 15 18 mph 1016.1mb 61f 65f
1:18 14 18 mph 1016.2mb 61f 65f
1:12 13 18 mph 1016.5mb 61f 65f
1:06 13 16 mph 1016.6mb 61f 65f
1:00 10 16 mph 1016.6mb 61f 65f
12:54 13 17 mph 1016.6mb 61f 65f
12:48 11 14 mph 1016.7mb 61f 65f
12:42 10 14 mph 1016.8mb 61f 65f
12:36 11 14 mph 1016.7mb 61f 65f
12:30 11 15 mph 1016.8mb 61f 65f
12:24 10 14 mph 1016.8mb 61f 65f
12:18 13 17 mph 1016.7mb 61f 65f
12:12 11 16 mph 1016.7mb 61f 65f
12:06 9 13 mph 1016.8mb 61f 65f
12:00 9 13 mph 1016.8mb 61f 65f
Ter 09/19 11:54 9 13 mph 1016.9mb 61f 65f
11:48 9 13 mph 1016.9mb 61f 65f
11:42 11 16 mph 1016.9mb 61f 65f
11:36 13 15 mph 1017mb 61f 65f
11:30 13 15 mph 1017.1mb 61f 65f
11:24 9 13 mph 1017.3mb 61f 65f
11:18 9 14 mph 1017.4mb 61f 65f
11:12 8 11 mph 1017.3mb 61f 65f
11:06 9 11 mph 1017.4mb 61f 65f
11:00 7 13 mph 1017.4mb 61f 65f
10:54 9 14 mph 1017.4mb 61f 65f
10:48 7 11 mph 1017.5mb 61f 65f
10:42 8 13 mph 1017.6mb 61f 65f
10:36 9 13 mph 1017.6mb 61f 65f
10:30 9 13 mph 1017.7mb 61f 65f
10:24 9 13 mph 1017.7mb 61f 65f
10:18 8 10 mph 1017.8mb 61f 65f
10:12 7 10 mph 1017.8mb 61f 65f
10:06 7 11 mph 1017.9mb 61f 65f
10:00 7 11 mph 1017.9mb 61f 65f
9:48 7 9 mph 1017.8mb 61f 64f
9:42 10 16 mph 1017.7mb 61f 64f
9:36 9 13 mph 1017.8mb 61f 64f
9:30 9 14 mph 1017.8mb 61f 64f
9:24 11 15 mph 1017.8mb 61f 64f
9:18 11 15 mph 1017.8mb 61f 64f
9:12 11 16 mph 1017.8mb 61f 64f
9:06 9 14 mph 1017.9mb 61f 64f
9:00 8 14 mph 1017.9mb 61f 64f
8:54 9 13 mph 1017.9mb 61f 64f
8:48 9 13 mph 1017.9mb 61f 64f
8:42 9 14 mph 1017.9mb 61f 64f
8:36 11 14 mph 1018mb 61f 64f
8:30 8 13 mph 1018mb 61f 64f
8:24 10 13 mph 1018mb 61f 64f
8:18 9 14 mph 1018mb 61f 64f
8:12 9 16 mph 1018mb 61f 64f
8:06 10 14 mph 1018.1mb 61f 64f
8:00 10 16 mph 1018.1mb 62f 64f
7:54 10 14 mph 1018mb 62f 64f
7:48 9 15 mph 1018mb 63f 64f
7:42 8 14 mph 1018mb 63f 64f
7:36 10 14 mph 1018.1mb 63f 64f
7:30 8 11 mph 1018.2mb 63f 64f
7:24 9 11 mph 1018.2mb 63f 64f
7:18 8 14 mph 1018.3mb 63f 64f
7:12 8 14 mph 1018.2mb 63f 64f
7:06 10 15 mph 1018.1mb 63f 64f
7:00 9 13 mph 1018.1mb 63f 64f
6:54 8 10 mph 1018mb 63f 63f
6:48 8 13 mph 1018.1mb 63f 63f
6:42 10 13 mph 1018.1mb 63f 63f
6:36 8 13 mph 1018.1mb 63f 63f
6:30 9 13 mph 1018.1mb 63f 63f
6:24 10 14 mph 1018.1mb 63f 63f
6:18 10 14 mph 1018.3mb 63f 63f
6:12 11 17 mph 1018.2mb 63f 63f
6:06 9 13 mph 1018.3mb 63f 64f
6:00 11 14 mph 1018.4mb 63f 64f
5:54 6 13 mph 1018.3mb 63f 64f
5:48 10 13 mph 1018.4mb 63f 64f
5:42 9 15 mph 1018.3mb 63f 64f
5:36 9 17 mph 1018.4mb 63f 64f
5:30 11 14 mph 1018.3mb 63f 64f
5:24 10 16 mph 1018.3mb 62f 64f
5:18 10 13 mph 1018.4mb 62f 64f
5:12 10 15 mph 1018.4mb 62f 64f
5:06 10 17 mph 1018.4mb 62f 64f
5:00 13 18 mph 1018.4mb 62f 64f
4:54 10 16 mph 1018.5mb 62f 64f
4:48 11 15 mph 1018.4mb 62f 64f
4:42 10 16 mph 1018.5mb 63f 64f
4:36 10 16 mph 1018.5mb 63f 64f
4:30 11 15 mph 1018.6mb 63f 64f
4:24 13 16 mph 1018.6mb 62f 64f
4:18 11 17 mph 1018.6mb 62f 65f
4:12 14 17 mph 1018.6mb 62f 65f
4:06 11 18 mph 1018.6mb 62f 65f
4:00 13 15 mph 1018.5mb 62f 65f
3:54 11 16 mph 1018.6mb 62f 65f
3:48 11 15 mph 1018.7mb 62f 65f
3:42 9 13 mph 1018.7mb 62f 66f
3:36 8 13 mph 1018.7mb 62f 65f
3:30 11 16 mph 1018.8mb 62f 65f
3:24 9 15 mph 1018.8mb 62f 65f
3:18 11 16 mph 1018.9mb 62f 65f
3:12 10 15 mph 1018.9mb 62f 65f
3:06 13 17 mph 1018.9mb 62f 65f
3:00 14 20 mph 1018.7mb 61f 65f
2:54 11 17 mph 1018.7mb 61f 65f
2:48 13 16 mph 1018.9mb 61f 64f
2:42 14 17 mph 1018.9mb 61f 64f
2:36 14 20 mph 1019mb 61f 64f
2:30 14 17 mph 1019.1mb 61f 64f
2:24 11 17 mph 1019.4mb 61f 64f
2:18 10 14 mph 1019.9mb 61f 63f
2:12 11 15 mph 1019.9mb 61f 63f
2:06 9 11 mph 1019.9mb 61f 63f
2:00 10 13 mph 1019.9mb 61f 63f
1:54 10 13 mph 1019.9mb 61f 64f
1:48 10 13 mph 1019.8mb 61f 64f
1:42 13 17 mph 1019.9mb 61f 64f
1:36 11 14 mph 1020mb 61f 64f
1:30 11 14 mph 1020mb 61f 64f
1:24 14 15 mph 1020.1mb 61f 64f
1:18 10 13 mph 1020.1mb 61f 64f
1:12 10 14 mph 1020.2mb 61f 64f
1:06 9 11 mph 1020.3mb 60f 64f
1:00 9 13 mph 1020.4mb 60f 65f
12:54 9 14 mph 1020.4mb 60f 66f
12:48 8 14 mph 1020.5mb 60f 66f
12:42 10 14 mph 1020.5mb 60f 65f
12:36 10 14 mph 1020.5mb 60f 66f
12:30 11 16 mph 1020.5mb 60f 65f
12:24 11 14 mph 1020.6mb 60f 65f
12:18 7 14 mph 1020.7mb 60f 65f
12:12 10 14 mph 1020.7mb 60f 65f
12:06 8 10 mph 1021mb 60f 65f
12:00 8 14 mph 1020.9mb 60f 64f
11:54 11 15 mph 1020.9mb 60f 64f
11:48 10 14 mph 1021mb 60f 64f
11:42 9 11 mph 1021.1mb 60f 65f
11:36 9 14 mph 1020.9mb 60f 65f
11:30 9 13 mph 1021.1mb 60f 65f
11:24 9 11 mph 1021.1mb 60f 65f
11:18 7 10 mph 1021.2mb 60f 64f
11:12 8 10 mph 1021.3mb 60f 64f
11:06 9 13 mph 1021.3mb 60f 64f
11:00 9 14 mph 1021.2mb 60f 64f
10:54 10 14 mph 1021.2mb 60f 64f
10:48 10 13 mph 1021.2mb 60f 64f
10:42 8 10 mph 1021.5mb 60f 64f
10:36 7 11 mph 1021.6mb 60f 64f
10:30 7 11 mph 1021.6mb 60f 64f
10:24 9 13 mph 1021.6mb 60f 64f
10:18 7 9 mph 1021.6mb 60f 64f
10:12 7 11 mph 1021.7mb 60f 64f
10:06 9 11 mph 1021.5mb 60f 64f
10:00 7 11 mph 1021.6mb 60f 64f
9:54 10 13 mph 1021.6mb 60f 63f
9:48 7 8 mph 1021.6mb 60f 63f
9:42 7 9 mph 1021.7mb 60f 63f
9:36 7 11 mph 1021.7mb 60f 63f
9:30 6 8 mph 1021.7mb 60f 63f
9:24 7 10 mph 1021.7mb 60f 62f
9:18 8 10 mph 1021.6mb 60f 62f
9:12 8 11 mph 1021.5mb 60f 62f
9:06 9 13 mph 1021.5mb 60f 62f
9:00 8 11 mph 1021.5mb 60f 62f
8:54 8 9 mph 1021.5mb 60f 62f
8:48 7 11 mph 1021.6mb 60f 62f
8:42 8 9 mph 1021.6mb 60f 61f
8:36 7 9 mph 1021.7mb 60f 61f
8:30 6 7 mph 1021.7mb 60f 61f
8:24 5 8 mph 1021.6mb 60f 61f
8:18 6 8 mph 1021.6mb 60f 61f
8:12 7 10 mph 1021.5mb 60f 61f
8:06 7 9 mph 1021.4mb 60f 61f
8:00 7 8 mph 1021.4mb 60f 61f
7:54 7 9 mph 1021.4mb 60f 61f
7:48 8 10 mph 1021.4mb 61f 61f
7:42 6 9 mph 1021.4mb 61f 61f
7:36 6 8 mph 1021.4mb 61f 61f
7:30 8 9 mph 1021.4mb 61f 61f
7:24 7 9 mph 1021.5mb 61f 61f
7:18 6 8 mph 1021.6mb 61f 61f
7:12 7 9 mph 1021.5mb 61f 61f
7:06 6 9 mph 1021.5mb 61f 61f
7:00 7 8 mph 1021.5mb 61f 60f
6:54 7 8 mph 1021.4mb 61f 60f
6:48 7 8 mph 1021.4mb 61f 60f
6:42 6 9 mph 1021.4mb 61f 60f
6:36 7 8 mph 1021.4mb 61f 60f
6:30 6 9 mph 1021.4mb 61f 60f
6:24 6 8 mph 1021.5mb 61f 60f
6:18 5 7 mph 1021.6mb 61f 60f
6:12 5 7 mph 1021.5mb 61f 60f
6:06 6 8 mph 1021.5mb 61f 60f
6:00 6 9 mph 1021.5mb 61f 60f
5:54 7 9 mph 1021.4mb 61f 60f
5:48 7 9 mph 1021.4mb 61f 60f
5:42 8 10 mph 1021.3mb 61f 60f
5:36 8 10 mph 1021.4mb 61f 60f
5:30 6 9 mph 1021.4mb 61f 60f
5:24 7 9 mph 1021.4mb 61f 60f
5:18 6 9 mph 1021.5mb 61f 60f
5:12 6 8 mph 1021.4mb 61f 60f
5:06 7 9 mph 1021.3mb 61f 60f
5:00 7 10 mph 1021.3mb 61f 60f
4:54 7 9 mph 1021.3mb 61f 60f
4:48 6 10 mph 1021.3mb 61f 60f
4:42 7 9 mph 1021.3mb 61f 60f
4:36 7 9 mph 1021.4mb 61f 60f
4:30 7 10 mph 1021.4mb 61f 60f
4:24 6 8 mph 1021.5mb 61f 60f
4:18 6 7 mph 1021.6mb 61f 60f
4:12 5 7 mph 1021.7mb 61f 60f
4:06 5 6 mph 1021.7mb 61f 60f
4:00 6 7 mph 1021.7mb 61f 60f
3:54 5 6 mph 1021.7mb 61f 60f
3:48 6 8 mph 1021.7mb 61f 60f
3:42 6 8 mph 1021.7mb 61f 60f
3:36 6 8 mph 1021.7mb 61f 60f
3:30 7 8 mph 1021.6mb 61f 60f
3:24 6 8 mph 1021.6mb 61f 60f
3:18 6 8 mph 1021.6mb 61f 60f
3:12 6 8 mph 1021.7mb 61f 60f
3:06 6 8 mph 1021.7mb 61f 60f
3:00 6 7 mph 1021.7mb 60f 60f
2:54 6 7 mph 1021.7mb 60f 60f
2:48 6 7 mph 1021.8mb 60f -
2:42 6 7 mph 1021.9mb 60f -
2:36 7 8 mph 1021.8mb 60f -
2:30 6 7 mph 1021.8mb 60f 60f
2:24 7 8 mph 1021.8mb 60f 60f
2:18 5 7 mph 1021.9mb 60f 60f
2:12 6 8 mph 1021.9mb 60f 60f
2:06 6 9 mph 1022mb 60f 60f
2:00 7 8 mph 1022mb 60f 60f
1:54 7 9 mph 1022.1mb 60f 60f
1:48 8 9 mph 1022.1mb 60f 60f
1:42 6 8 mph 1022.3mb 60f 60f
1:36 8 9 mph 1022.3mb 60f 60f
1:30 6 8 mph 1022.3mb 60f 60f
1:24 8 9 mph 1022.3mb 60f 60f
1:18 7 9 mph 1022.4mb 60f 60f
1:12 7 9 mph 1022.5mb 60f 60f
1:06 6 7 mph 1022.6mb 60f 61f
1:00 7 8 mph 1022.5mb 60f 61f
12:54 6 8 mph 1022.6mb 60f 61f
12:48 6 8 mph 1022.5mb 60f 61f
12:42 6 8 mph 1022.5mb 60f 61f
12:36 7 8 mph 1022.6mb 60f 61f
12:30 6 8 mph 1022.6mb 60f 61f
12:24 6 7 mph 1022.6mb 60f 61f
12:18 6 7 mph 1022.7mb 60f 61f
12:12 5 7 mph 1022.8mb 60f 61f
12:06 6 8 mph 1022.8mb 60f 61f
12:00 5 8 mph 1022.8mb 60f 61f
Seg 09/18 11:54 7 9 mph 1022.7mb 60f 61f
11:48 5 8 mph 1022.7mb 60f 61f
11:42 7 9 mph 1022.6mb 60f 61f
11:36 7 9 mph 1022.7mb 59f 61f
11:30 5 8 mph 1022.7mb 60f 61f
11:24 6 8 mph 1022.7mb 59f 61f
11:18 6 8 mph 1022.7mb 59f 61f
11:12 5 7 mph 1022.9mb 59f 61f
11:06 6 8 mph 1022.9mb 59f 61f
11:00 6 7 mph 1022.9mb 59f 61f
10:54 5 5 mph 1023.1mb 59f 61f
10:48 5 6 mph 1023.1mb 59f 61f
10:42 5 6 mph 1023.1mb 59f 61f
10:36 5 6 mph 1023.2mb 59f 62f
10:30 3 5 mph 1023.2mb 59f 62f
10:24 2 3 mph 1023.2mb 59f 62f
10:18 2 5 mph 1023.2mb 59f 62f
10:12 3 6 mph 1023.1mb 59f 62f
10:06 3 6 mph 1023.1mb 59f 62f
10:00 3 6 mph 1023.1mb 59f 62f
9:54 3 5 mph 1023.1mb 59f 62f
9:48 3 6 mph 1023mb 60f 62f
9:42 3 5 mph 1023.1mb 60f 62f
9:36 3 5 mph 1023mb 60f 62f
9:30 3 3 mph 1023mb 60f 62f
9:24 3 6 mph 1023mb 60f 62f
9:18 3 7 mph 1022.9mb 60f 62f
9:12 5 6 mph 1022.9mb 60f 62f
9:06 3 5 mph 1022.9mb 60f 62f
9:00 5 6 mph 1023mb 60f 62f
8:54 3 6 mph 1023mb 60f 62f
8:48 2 3 mph 1023mb 59f 62f
8:42 3 5 mph 1023mb 59f 62f
8:36 5 7 mph 1022.9mb 59f 62f
8:30 5 7 mph 1022.9mb 59f 62f
8:24 5 7 mph 1022.9mb 59f 62f
8:18 5 7 mph 1022.9mb 60f 62f
8:12 6 8 mph 1022.9mb 60f 62f
8:06 6 7 mph 1023mb 60f 62f
8:00 6 8 mph 1022.9mb 59f 62f
7:54 6 7 mph 1023mb 59f 62f
7:48 5 7 mph - - -
7:42 5 6 mph - - -
7:36 3 6 mph - - -
7:30 5 6 mph 1022.7mb 60f 62f
7:24 5 6 mph 1022.6mb 60f 62f
7:18 5 6 mph 1022.6mb 60f 62f
7:12 5 6 mph 1022.5mb 61f 62f
7:06 3 5 mph 1022.4mb 62f 62f
7:00 5 6 mph 1022.4mb 63f 62f
6:54 5 6 mph 1022.3mb 63f 62f
6:48 5 6 mph 1022.2mb 63f 62f
6:42 3 5 mph 1022.2mb 63f 62f
6:36 3 6 mph 1022.2mb 63f 62f
6:30 5 6 mph 1022.2mb 63f 62f
6:24 3 6 mph 1022.2mb 63f 62f
6:18 3 5 mph 1022.2mb 63f 62f
6:12 3 6 mph 1022.2mb 63f 62f
6:06 5 6 mph 1022.3mb 63f 62f
6:00 5 6 mph 1022.3mb 63f 62f
5:54 5 6 mph 1022.3mb 63f 62f
5:48 5 6 mph 1022.3mb 63f 62f
5:42 5 6 mph 1022.3mb 63f 62f
5:36 3 5 mph 1022.2mb 63f 62f
5:30 5 6 mph 1022.2mb 63f 62f
5:24 5 5 mph 1022.2mb 63f 62f
5:18 3 5 mph 1022.3mb 63f 62f
5:12 3 5 mph 1022.3mb 62f 62f
5:06 2 3 mph 1022.3mb 62f 63f
5:00 2 2 mph 1022.4mb 62f 62f
4:54 1 2 mph 1022.4mb 62f 62f
4:48 2 2 mph 1022.3mb 62f 62f
4:42 2 2 mph 1022.3mb 62f 62f
4:36 2 3 mph 1022.3mb 62f 63f
4:30 2 3 mph 1022.3mb 62f 63f
4:24 2 5 mph 1022.2mb 62f 63f
4:18 2 3 mph 1022.1mb 62f 62f
4:12 3 6 mph 1022.2mb 62f 63f
4:06 2 5 mph 1022.2mb 62f 63f
4:00 2 5 mph 1022.2mb 62f 63f
3:54 3 5 mph 1022.3mb 62f 63f
3:48 3 5 mph 1022.4mb 62f 63f
3:42 5 6 mph 1022.4mb 62f 63f
3:36 3 6 mph 1022.3mb 62f 63f
3:30 5 6 mph 1022.3mb 62f 63f
3:24 3 5 mph 1022.3mb 62f 63f
3:18 2 5 mph 1022.3mb 62f 63f
3:12 3 5 mph 1022.3mb 62f 63f
3:06 3 5 mph 1022.4mb 62f 63f
3:00 3 5 mph 1022.4mb 62f 63f
2:54 3 5 mph 1022.4mb 62f 63f
2:48 3 6 mph 1022.3mb 62f 63f
2:42 6 7 mph 1022.3mb 62f 63f
2:36 5 5 mph 1022.3mb 62f 64f
2:30 3 6 mph 1022.3mb 62f 63f
2:24 3 5 mph 1022.4mb 61f 63f
2:18 2 5 mph 1022.3mb 61f 63f
2:12 3 6 mph 1022.4mb 61f 63f
2:06 3 6 mph 1022.4mb 61f 63f
2:00 5 7 mph 1022.5mb 61f 63f
1:54 6 8 mph 1022.5mb 61f 63f
1:48 5 6 mph 1022.4mb 61f 63f
1:42 5 6 mph 1022.4mb 61f 63f
1:36 5 6 mph 1022.3mb 61f 63f
1:30 5 5 mph 1022.3mb 61f 63f
1:24 5 6 mph 1022.4mb 61f 63f
1:18 5 6 mph 1022.3mb 61f 63f
1:12 5 6 mph 1022.3mb 61f 63f
1:06 6 6 mph 1022.3mb 61f 63f
1:00 5 6 mph 1022.4mb 61f 63f
12:54 5 6 mph 1022.5mb 61f 63f
12:48 3 5 mph 1022.5mb 61f 63f
12:42 5 6 mph 1022.5mb 61f 63f
12:36 5 6 mph 1022.5mb 60f 63f
12:30 5 6 mph 1022.5mb 60f 63f
12:24 3 6 mph 1022.5mb 60f 63f
12:18 3 6 mph 1022.6mb 60f 63f
12:12 5 6 mph 1022.6mb 60f 63f
12:06 5 6 mph 1022.6mb 60f 63f
12:00 3 5 mph 1022.6mb 60f 62f
11:54 3 6 mph 1022.6mb 60f 63f
11:48 3 5 mph 1022.7mb 60f 63f
11:42 2 5 mph 1022.7mb 60f 63f
11:36 3 5 mph 1022.7mb 60f 63f
11:30 3 5 mph 1022.7mb 60f 63f
11:24 5 6 mph 1022.7mb 60f 63f
11:18 5 6 mph 1022.7mb 60f 63f
11:12 5 6 mph 1022.7mb 60f 63f
11:06 2 3 mph 1022.6mb 60f 63f
11:00 3 5 mph 1022.7mb 60f 63f
10:54 3 5 mph 1022.6mb 60f 63f
10:48 3 5 mph 1022.6mb 60f 63f
10:42 3 5 mph 1022.7mb 60f 63f
10:36 3 3 mph 1022.7mb 60f 63f
10:30 3 5 mph 1022.6mb 60f 63f
10:24 2 5 mph 1022.5mb 60f 63f
10:18 3 5 mph 1022.7mb 60f 63f
10:12 2 2 mph 1022.7mb 60f 63f
10:06 1 2 mph 1022.7mb 60f 63f
10:00 1 2 mph 1022.8mb 60f 63f
9:54 1 1 mph 1022.8mb 60f 63f
9:48 1 2 mph 1022.7mb 60f 63f
9:42 1 2 mph 1022.8mb 60f 63f
9:36 1 1 mph 1022.9mb 60f 63f
9:30 1 2 mph 1023mb 60f 63f
9:24 1 2 mph 1023mb 60f 63f
9:18 1 2 mph 1023.1mb 60f 63f
9:12 1 2 mph 1023.1mb 60f 63f
9:06 2 2 mph 1023.2mb 60f 62f
9:00 1 2 mph 1023.1mb 60f 63f
8:54 2 2 mph 1023.1mb 60f 63f
8:48 1 2 mph 1023.1mb 60f 63f
8:42 1 2 mph 1023mb 60f 63f
8:36 1 1 mph 1023mb 60f 62f
8:30 1 2 mph 1022.9mb 60f 62f
8:24 1 2 mph 1022.9mb 60f 62f
8:18 2 3 mph 1022.8mb 60f 62f
8:12 2 2 mph 1022.7mb 60f 62f
8:06 2 2 mph 1022.7mb 60f 62f
8:00 2 2 mph 1022.6mb 60f 62f
7:54 1 2 mph 1022.5mb 59f 62f
7:48 2 3 mph 1022.5mb 59f 62f
7:42 3 3 mph 1022.4mb 59f 62f
7:36 3 6 mph 1022.3mb 59f 62f
7:30 5 6 mph 1022.2mb 59f 62f
7:24 3 6 mph 1022.1mb 59f 62f
7:18 5 6 mph 1022mb 59f 62f
7:12 3 5 mph 1022mb 59f 62f
7:06 3 3 mph 1021.8mb 60f 62f
7:00 2 3 mph 1021.9mb 60f 61f
6:54 1 2 mph 1021.9mb 61f 61f
6:48 1 1 mph 1021.9mb 62f 61f
6:42  -  0 mph 1021.8mb 63f 61f
6:36  -  0 mph 1021.8mb 63f 61f
6:30  -  0 mph 1021.8mb 63f 61f
6:24  -  1 mph 1021.7mb 63f 61f
6:18 1 3 mph 1021.6mb 63f 61f
6:12 2 2 mph 1021.5mb 63f 61f
6:06 1 2 mph 1021.4mb 63f 61f
6:00 1 1 mph 1021.4mb 63f 61f
5:54  -  1 mph 1021.5mb 63f 61f
5:48 1 2 mph 1021.5mb 63f 61f
5:42 1 1 mph 1021.3mb 63f 61f
5:36 1 1 mph 1021.2mb 63f 61f
5:30  -  1 mph 1021.2mb 63f 61f
5:24  -  0 mph 1021.3mb 63f 61f
5:18  -  1 mph 1021.3mb 63f 61f
5:12  -  1 mph 1021.5mb 63f 61f
5:06 1 2 mph 1021.5mb 62f 61f
5:00 2 2 mph 1021.6mb 62f 61f
4:54 2 3 mph 1021.5mb 62f 61f
4:48 2 3 mph 1021.4mb 62f 61f
4:42 2 3 mph 1021.3mb 62f 61f
4:36 2 3 mph 1021.1mb 62f 61f
4:30 3 5 mph 1021.1mb 62f 61f
4:24 3 5 mph 1021mb 62f 61f
4:18 5 5 mph 1021mb 62f 61f
4:12 3 6 mph 1021mb 62f 61f
4:06 3 6 mph 1021.1mb 62f 61f
4:00 5 6 mph 1021.2mb 62f 61f
3:54 6 7 mph 1021.3mb 62f 61f
3:48 3 5 mph 1021.2mb 62f 60f
3:42 2 5 mph 1021.1mb 62f 60f
3:36 3 3 mph 1021mb 62f 60f
3:30 3 5 mph 1021mb 62f 60f
3:24 3 6 mph 1021mb 62f 61f
3:18 3 3 mph 1021.1mb 62f 61f
3:12 2 3 mph 1021.1mb 62f 61f
3:06 3 5 mph 1021.1mb 62f 61f
3:00 3 5 mph 1021.2mb 62f 61f
2:54 2 3 mph 1021.2mb 62f 61f
2:48 2 3 mph 1021.2mb - -
2:42 2 3 mph 1021.3mb - -
2:36 3 5 mph 1021.3mb - -
2:30 3 3 mph 1021.3mb 62f 61f
2:24 3 3 mph 1021.3mb 62f 61f
2:18 2 3 mph 1021.3mb 62f 61f
2:12 2 2 mph 1021.3mb 62f 61f
2:06  -  1 mph 1021.3mb 62f 61f
2:00  -  1 mph 1021.3mb 62f 61f
1:54  -  1 mph 1021.3mb 61f 61f
1:48  -  2 mph 1021.3mb 61f 61f
1:42 2 2 mph 1021.4mb 61f 61f
1:36 2 2 mph 1021.4mb 61f 61f
1:30 1 2 mph 1021.4mb 61f 61f
1:24  -  1 mph 1021.3mb 61f 61f
1:18  -  1 mph 1021.3mb 62f 61f
1:12  -  0 mph 1021.3mb 62f 61f
1:06  -  0 mph 1021.3mb 62f 61f
1:00  -  1 mph 1021.3mb 61f 61f
12:54  -  1 mph 1021.2mb 61f 61f
12:48  -  1 mph 1021.2mb 61f 61f
12:42 1 2 mph 1021.3mb 61f 61f
12:36 1 2 mph 1021.3mb 61f 61f
12:30  -  1 mph 1021.4mb 61f 61f
12:24  -  2 mph 1021.3mb 61f 61f
12:18 2 3 mph 1021.3mb 61f 61f
12:12 2 5 mph 1021.4mb 61f 61f
12:06 3 5 mph 1021.5mb 61f 61f
12:00 3 3 mph 1021.6mb 61f 61f
Dom 09/17 11:54 3 5 mph 1021.7mb 61f 61f
11:48 3 3 mph 1021.7mb 61f 61f
11:42 2 3 mph 1021.7mb 60f 61f
11:36 2 2 mph 1021.7mb 60f 61f
11:30 2 2 mph 1021.7mb 60f 61f
11:24 1 2 mph 1021.7mb 60f 61f
11:18 2 2 mph 1021.7mb 60f 61f
11:12  -  1 mph 1021.7mb 60f 61f
11:06  -  1 mph 1021.8mb 60f 61f
11:00  -  1 mph 1021.7mb 60f 61f
10:54  -  1 mph 1021.7mb 60f 61f
10:48  -  1 mph 1021.6mb 60f 61f
10:42 1 1 mph 1021.7mb 60f 61f
10:36  -  1 mph 1021.7mb 60f 61f
10:30  -  2 mph 1021.7mb 60f 61f
10:24 1 1 mph 1021.6mb 59f 61f
10:18  -  2 mph 1021.6mb 59f 61f
10:12 2 3 mph 1021.6mb 59f 61f
10:06 2 2 mph 1021.6mb 59f 61f
10:00 2 3 mph 1021.6mb 59f 61f
9:54 2 3 mph 1021.6mb 59f 61f
9:48 1 2 mph 1021.6mb 59f 61f
9:42 3 3 mph 1021.6mb 60f 61f
9:36 3 5 mph 1021.7mb 60f 61f
9:30 5 5 mph 1021.7mb 60f 61f
9:24 3 6 mph 1021.7mb 60f 61f
9:18 6 8 mph 1021.7mb 60f 61f
9:12 6 7 mph 1021.7mb 60f 61f
9:06 7 9 mph 1021.7mb 60f 61f
9:00 7 9 mph 1021.7mb 60f 61f
8:54 8 11 mph 1021.7mb 60f 61f
8:48 8 10 mph 1021.6mb 60f 61f
8:42 7 9 mph 1021.5mb 60f 61f
8:36 6 8 mph 1021.4mb 60f 61f
8:30 8 9 mph 1021.4mb 60f 61f
8:24 6 7 mph 1021.3mb 60f 61f
8:18 5 7 mph 1021.3mb 60f 61f
8:12 6 7 mph 1021.4mb 60f 61f
8:06 5 6 mph 1021.3mb 61f 61f
8:00 5 6 mph 1021.2mb 61f 61f
7:54 5 7 mph 1021.2mb 61f 61f
7:48 5 7 mph 1021.1mb 61f 61f
7:42 6 6 mph 1021mb 61f 61f
7:36 5 6 mph 1021mb 61f 61f
7:30 5 8 mph 1020.9mb 61f 61f
7:24 6 7 mph 1020.9mb 61f 61f
7:18 5 7 mph 1020.8mb 61f 61f
7:12 6 6 mph 1020.8mb 61f 61f
7:06 5 7 mph 1020.8mb 61f 61f
7:00 6 8 mph 1020.8mb 61f 61f
6:54 8 9 mph 1020.9mb 61f 61f
6:48 7 9 mph 1020.9mb 61f 61f
6:42 7 8 mph 1020.9mb 61f 61f
6:36 7 9 mph 1020.9mb 61f 61f
6:30 8 9 mph 1020.8mb 61f 61f
6:24 6 8 mph 1020.8mb 61f 62f
6:18 7 9 mph 1020.8mb 61f 62f
6:12 7 9 mph 1020.8mb 62f 62f
6:06 7 10 mph 1020.8mb 62f 62f
6:00 8 9 mph 1020.8mb 63f 62f
5:54 8 10 mph 1020.8mb 64f 62f
5:48 7 10 mph 1020.9mb 64f 62f
5:42 8 11 mph 1020.9mb 64f 62f
5:36 9 10 mph 1020.9mb 64f 62f
5:30 8 10 mph 1021.1mb 64f 62f
5:24 7 9 mph 1021.1mb 64f 62f
5:18 6 9 mph 1021.1mb 64f 63f
5:12 7 10 mph 1021.1mb 64f 62f
5:06 9 10 mph 1021mb 64f 62f
5:00 7 8 mph 1021mb 64f 62f
4:54 7 10 mph 1021mb 64f 63f
4:48 8 10 mph 1020.9mb 64f 63f
4:42 7 10 mph 1021mb 64f 63f
4:36 8 10 mph 1021mb 64f 62f
4:30 8 10 mph 1021.1mb 64f 62f
4:24 8 10 mph 1021.1mb 64f 62f
4:18 7 10 mph 1021.1mb 64f 62f
4:12 8 10 mph 1021.1mb 64f 62f
4:06 8 10 mph 1021.1mb 64f 63f
4:00 8 9 mph 1021mb 64f 62f
3:54 6 8 mph 1020.9mb 64f 63f
3:48 7 8 mph 1020.9mb 64f 63f
3:42 7 8 mph 1021mb 63f 63f
3:36 7 8 mph 1021mb 63f 63f
3:30 7 8 mph 1020.9mb 63f 62f
3:24 6 8 mph 1020.9mb 63f 63f
3:18 7 8 mph 1020.9mb 63f 63f
3:12 8 10 mph 1020.9mb 63f 62f
3:06 8 10 mph 1021mb 63f 63f
3:00 7 8 mph 1020.9mb 63f 63f
2:54 7 8 mph 1020.9mb 63f 62f
2:48 6 7 mph 1021mb 63f 63f
2:42 6 8 mph 1021mb 63f 63f
2:36 7 8 mph 1021mb 63f 63f
2:30 7 9 mph 1021mb 63f 63f
2:24 7 8 mph 1021mb 63f 63f
2:18 6 8 mph 1020.9mb 63f 63f
2:12 7 9 mph 1021mb 63f 63f
2:06 8 9 mph 1021mb 62f 63f
2:00 7 8 mph 1021mb 62f 63f
1:54 6 7 mph 1021mb 62f 63f
1:48 5 6 mph 1021mb 62f 63f
1:42 5 7 mph 1021.1mb 62f 63f
1:36 6 6 mph 1021.2mb 62f 63f
1:30 6 7 mph 1021.2mb 62f 64f
1:24 5 6 mph 1021.3mb 62f 64f
1:18 5 6 mph 1021.3mb 62f 64f
1:12 5 6 mph 1021.5mb 62f 64f
1:06 5 6 mph 1021.5mb 62f 64f
1:00 5 6 mph 1021.5mb 61f 63f
12:54 5 6 mph 1021.6mb 62f 63f
12:48 5 6 mph 1021.7mb 62f 63f
12:42 5 5 mph 1021.7mb 61f 64f
12:36 3 5 mph 1021.8mb 61f 64f
12:30 2 3 mph 1021.8mb 61f 64f
12:24 3 5 mph 1021.9mb 61f 63f
12:18 5 6 mph 1021.9mb 61f 63f
12:12 5 7 mph 1021.9mb 61f 63f
12:06 6 7 mph 1022mb 61f 63f
12:00 6 7 mph 1022mb 61f 63f
11:54 5 7 mph 1022mb 61f 63f
11:48 5 7 mph 1022mb 61f 63f
11:42 5 7 mph 1022.1mb 61f 63f
11:36 6 7 mph 1022.2mb 61f 63f
11:30 5 6 mph 1022.2mb 60f 63f
11:24 3 6 mph 1022.2mb 60f 64f
11:18 6 7 mph 1022.3mb 60f 64f
11:12 6 6 mph 1022.3mb 60f 64f
11:06 6 6 mph 1022.3mb 60f 64f
11:00 5 6 mph 1022.2mb 60f 64f
10:54 5 6 mph 1022.2mb 60f 64f
10:48 5 6 mph 1022.2mb 60f 63f
10:42 3 3 mph 1022.2mb 60f 63f
10:36 3 3 mph 1022.2mb 60f 63f
10:30 2 3 mph 1022.1mb 60f 63f
10:24 2 3 mph 1022.1mb 60f 63f
10:18 3 3 mph 1022.2mb 60f 62f
10:12 2 2 mph 1022.2mb 60f 63f
10:06 2 3 mph 1022.3mb 60f 63f
10:00 2 3 mph 1022.2mb 60f 64f
9:54 2 2 mph 1022.2mb 60f 64f
9:48 2 3 mph 1022.1mb 60f 63f
9:42 3 5 mph 1022.2mb 60f 63f
9:36 2 2 mph 1022.1mb 60f 62f
9:30 2 3 mph 1022.1mb 60f 63f
9:24 3 3 mph 1022.2mb 60f 63f
9:18 1 2 mph 1022.2mb 60f 63f
9:12  -  1 mph 1022.1mb 60f 63f
9:06  -  0 mph 1022.2mb 60f 63f
9:00  -  1 mph 1022.2mb 60f 62f
8:54  -  1 mph 1022.1mb 60f 62f
8:48 1 1 mph 1022.1mb 60f 62f
8:42  -  1 mph 1022.1mb 60f 62f
8:36 1 1 mph 1022.3mb 60f 62f
8:30  -  0 mph 1022.2mb 60f 62f
8:24  -  1 mph 1022.2mb 60f 62f
8:18 1 1 mph 1022.1mb 60f 61f
8:12 1 3 mph 1022.2mb 60f 61f
8:06 3 5 mph 1022.2mb 60f 61f
8:00 1 2 mph 1022.1mb 60f 61f
7:54  -  1 mph 1022.2mb 60f 61f
7:48  -  1 mph 1022.1mb 60f 61f
7:42  -  2 mph 1022mb 60f 61f
7:36 2 2 mph 1021.9mb 60f 61f
7:30 2 2 mph 1021.9mb 60f 61f
7:24 2 2 mph 1021.9mb 60f 61f
7:18 2 2 mph 1021.9mb 60f 61f
7:12  -  1 mph 1021.9mb 60f 61f
7:06  -  2 mph 1021.8mb 60f 61f
7:00 2 3 mph 1021.7mb 60f 61f
6:54 1 2 mph 1021.6mb 60f 60f
6:48 1 1 mph 1021.6mb 60f 60f
6:42 1 1 mph 1021.6mb 60f 60f
6:36 1 2 mph 1021.6mb 60f 60f
6:30 1 2 mph 1021.6mb 60f 60f
6:24 1 2 mph 1021.5mb 60f 60f
6:18 1 1 mph 1021.4mb 60f 60f
6:12 1 2 mph 1021.4mb 60f 60f
6:06 1 2 mph 1021.3mb 60f 60f
6:00 2 2 mph 1021.3mb 61f 60f
5:54 1 2 mph 1021.2mb 63f 60f
5:48 1 2 mph 1021.3mb 63f 60f
5:42 1 2 mph 1021.3mb 63f 60f
5:36 1 2 mph 1021.2mb 63f 60f
5:30 3 3 mph 1021.2mb 63f 60f
5:24 3 5 mph 1021.2mb 63f 60f
5:18 3 3 mph 1021.2mb 63f 60f
5:12 2 3 mph 1021.2mb 63f 60f
5:06 3 5 mph 1021.2mb 63f 60f
5:00 5 6 mph 1021.2mb 63f 60f
4:54 2 3 mph 1021.1mb 63f 60f
4:48  -  0 mph 1020.9mb 63f 61f
4:42  -  2 mph 1020.9mb 63f 60f
4:36 2 3 mph 1020.9mb 63f 60f
4:30 2 5 mph 1020.9mb 63f 60f
4:24 3 6 mph 1020.8mb 63f 60f
4:18 6 6 mph 1020.8mb 63f 60f
4:12 2 3 mph 1020.7mb 63f 60f
4:06 2 5 mph 1020.7mb 63f 60f
4:00 2 3 mph 1020.6mb 63f 60f
3:54 3 3 mph 1020.7mb 63f 60f
3:48 1 3 mph 1020.7mb 63f 60f
3:42 2 6 mph 1020.8mb 63f 60f
3:36 3 5 mph 1020.7mb 62f 60f
3:30 2 9 mph 1020.6mb 62f 60f
3:24 5 8 mph 1020.7mb 62f 60f
3:18  -  1 mph 1020.5mb 62f 60f
3:12 1 1 mph 1020.5mb 62f 60f
3:06  -  2 mph 1020.5mb 62f 60f
3:00  -  1 mph 1020.5mb 62f 60f
2:54 1 2 mph 1020.5mb 62f 60f
2:48 2 2 mph 1020.6mb 62f -
2:42 2 2 mph 1020.6mb 62f -
2:36 2 2 mph 1020.7mb 62f -
2:30 2 2 mph 1020.7mb 62f 60f
2:24 2 3 mph 1020.8mb 62f 60f
2:18 3 5 mph 1020.8mb 62f 60f
2:12 2 2 mph 1020.9mb 62f 61f
2:06 1 1 mph 1020.9mb 62f 61f
2:00  -  0 mph 1020.9mb 62f 61f
1:54  -  1 mph 1020.9mb 63f 61f
1:48  -  1 mph 1021mb - -
1:42  -  1 mph 1021mb - -
1:36  -  1 mph 1021mb - -
1:30  -  1 mph 1020.9mb 62f 61f
1:24  -  2 mph 1020.9mb 62f 61f
1:18 2 2 mph 1020.9mb 62f 61f
1:12 2 3 mph 1020.9mb 62f 61f
1:06 2 3 mph 1020.9mb 62f 61f
1:00 2 2 mph 1021mb 62f 61f
12:54  -  2 mph 1021.1mb 62f 61f
12:48 1 2 mph 1021.2mb 62f 61f
12:42  -  1 mph 1021.1mb 62f 61f
12:36  -  1 mph 1021.1mb 61f 61f
12:30  -  1 mph 1021.1mb 61f 61f
12:24  -  1 mph 1021.1mb 61f 61f
12:18  -  2 mph 1021.1mb 62f 61f
12:12 2 3 mph 1021.1mb 62f 61f
12:06  -  1 mph 1021.1mb 62f 61f
12:00 1 1 mph 1021mb 61f 61f
Sáb 09/16 11:54 1 1 mph 1021mb 61f 61f
11:48  -  1 mph 1021.1mb 61f 62f
11:42 1 2 mph 1021.1mb 61f 62f
11:36  -  0 mph 1021.1mb 61f 62f
11:30  -  1 mph 1021.2mb 61f 62f
11:24 2 2 mph 1021.1mb 61f 62f
11:18 2 3 mph 1021.2mb 61f 62f
11:12 3 3 mph 1021.3mb 61f 62f
11:06 3 3 mph 1021.3mb 61f 62f
11:00 2 3 mph 1021.3mb 61f 62f
10:54 2 3 mph 1021.3mb 61f 62f
10:48 1 2 mph 1021.2mb 61f 62f
10:42 2 2 mph 1021.1mb 60f 62f
10:36 2 2 mph 1021.2mb 60f 62f
10:30  -  1 mph 1021.2mb 60f 62f
10:24  -  1 mph 1021.2mb 60f 62f
10:18  -  1 mph 1021.1mb 60f 62f
10:12  -  1 mph 1021mb 60f 62f
10:06  -  2 mph 1021mb 60f 62f
10:00 2 2 mph 1020.9mb 60f 62f
9:54 2 3 mph 1020.9mb 60f 62f
9:48 2 3 mph 1020.9mb 60f 62f
9:42 2 2 mph 1020.9mb 60f 62f
9:36 2 3 mph 1020.8mb 60f 62f
9:30 3 5 mph 1020.8mb 60f 62f
9:24 5 6 mph 1020.8mb 60f 62f
9:18 6 7 mph 1020.9mb 60f 61f
9:12 6 7 mph 1021mb 60f 61f
9:06 6 8 mph 1021mb 60f 61f
9:00 6 7 mph 1021.1mb 60f 61f
8:54 5 7 mph 1021mb 60f 62f
8:48 5 6 mph 1021mb 60f 62f
8:42 6 7 mph 1021mb 60f 62f
8:36 6 7 mph 1021mb 60f 62f
8:30 3 5 mph 1021mb 60f 62f
8:24 5 7 mph 1021mb 60f 62f
8:18 7 8 mph 1021mb 60f 62f
8:12 7 9 mph 1021mb 60f 62f
8:06 7 8 mph 1021mb 60f 62f
8:00 8 10 mph 1021mb 60f 62f
7:54 7 9 mph 1020.9mb 60f 62f
7:48 8 10 mph 1020.8mb 60f 62f
7:42 7 8 mph 1020.8mb 60f 62f
7:36 6 7 mph 1020.8mb 60f 62f
7:30 6 7 mph 1020.7mb 60f 62f
7:24 7 9 mph 1020.6mb 60f 62f
7:18 7 8 mph 1020.6mb 60f 62f
7:12 8 10 mph 1020.6mb 60f 63f
7:06 10 11 mph 1020.7mb 60f 63f
7:00 9 11 mph 1020.7mb 60f 63f
6:54 9 11 mph 1020.6mb 61f 63f
6:48 9 10 mph 1020.6mb 61f 63f
6:42 9 10 mph 1020.7mb 61f 63f
6:36 9 10 mph 1020.7mb 61f 64f
6:30 6 8 mph 1020.7mb 61f 64f
6:24 6 8 mph 1020.7mb 61f 64f
6:18 6 8 mph 1020.7mb 61f 65f
6:12 6 7 mph 1020.7mb 61f 65f
6:06 5 6 mph 1020.6mb 61f 65f
6:00 5 6 mph 1020.6mb 61f 65f
5:54 5 7 mph 1020.5mb 61f 65f
5:48 6 7 mph 1020.6mb 61f 65f
5:42 6 7 mph 1020.6mb 61f 66f
5:36 6 7 mph 1020.6mb 61f 66f
5:30 8 9 mph 1020.6mb 61f 66f
5:24 7 8 mph 1020.6mb 61f 66f
5:18 6 7 mph 1020.5mb 61f 67f
5:12 6 8 mph 1020.5mb 62f 67f
5:06 7 8 mph 1020.5mb 63f 67f
5:00 6 7 mph 1020.6mb 64f 67f
4:54 7 7 mph 1020.6mb 64f 67f
4:48 6 7 mph 1020.6mb 64f 67f
4:42 7 9 mph 1020.5mb 64f 68f
4:36 8 9 mph 1020.5mb 64f 68f
4:30 7 8 mph 1020.4mb 63f 68f
4:24 8 10 mph 1020.4mb 63f 68f
4:18 9 11 mph 1020.4mb 63f 68f
4:12 8 9 mph 1020.3mb 63f 69f
4:06 8 10 mph 1020.3mb 63f 69f
4:00 8 10 mph 1020.3mb 63f 69f
3:54 9 10 mph 1020.3mb 63f 68f
3:48 9 10 mph 1020.3mb 63f 69f
3:42 9 10 mph 1020.4mb 63f 69f
3:36 8 9 mph 1020.4mb 63f 69f
3:30 8 9 mph 1020.5mb 63f 69f
3:24 7 8 mph 1020.6mb 63f 68f
3:18 8 9 mph 1020.6mb 63f 68f
3:12 8 8 mph 1020.6mb 63f 68f
3:06 7 10 mph 1020.7mb 63f 68f
3:00 8 9 mph 1020.7mb 63f 67f
2:54 8 11 mph 1020.7mb 63f 67f